sat.trackr.live / text

‹ back to catalog

STARLINK-4551

NORAD 53575 · 2022-101BA

PAYLOAD ACTIVE UNKNOWN

§ Identity

Operator
Country
US
Launch date
2022-08-19
Launch site
AFETR
Launch vehicle
Mass (kg)
RCS (m²)

Purposes: comms

External: N2YO · Heavens-Above · Gunter

§ Orbital elements

Epoch: 2026-09-19T13:50:14.762400Z

Period
93.85 min
Inclination
53.1587°
Eccentricity
0.0001173
Mean motion
15.34397142 rev/d
Perigee alt
461.9 km
Apogee alt
463.5 km
Semi-major
6,840.8 km
B*
5.4455e-6
RAAN
247.7701°
Arg perigee
69.8190°
Mean anomaly
290.2938°
Rev number
22,662

§ Raw data

STARLINK-45511 53575U 22101BA  26262.57655975 -.00000192  00000+0  54455-5 0  99982 53575  53.1587 247.7701 0001173  69.8190 290.2938 15.34397142226629

JSON: /api/v1/satellites/53575 · /tle

For live sub-satellite position, see the globe view (requires WebGL).

§ Visibility from observer

Set your observer location to see the next 7 days of passes ≥ 10°. The values pass through the URL so the page stays shareable.

No JS? Fill the form by hand. The geolocation button needs JavaScript.